Location: Maiden
(35.5760°N, 81.2120°W)
Time: 20:54:31
(UTC-04:00)

ATLAS 3B R/B - Pass Details

Date: 14 June 2018
Orbit: 1023 x 1172 km, 63.8° (Epoch: 10 October)

Event Time Altitude Azimuth Distance (km) Brightness Sun altitude
Rises 23:33:09 0° 338° (NNW) 3,802 6.9 -25.4°
Reaches altitude 10° 23:36:26 10° 353° (N) 2,832 5.8 -25.7°
Maximum altitude 23:41:32 23° 44° (NE) 2,035 4.3 -26.2°
Enters shadow 23:44:46 16° 81° (E) 2,380 4.3 -26.5°
